Weather History for LHUD - August, 2013

Change the Weather History Date:

Friday, August 30, 2013

  Actual Average (LRAR) Record (LRAR)
Temperature  
Mean Temperature 67 °F -  
Max Temperature 77 °F 74 °F 88 °F (2012)
Min Temperature 55 °F 51 °F 46 °F (1998)
Cooling Degree Days 2    
Growing Degree Days 17 (Base 50)    
Moisture  
Dew Point 53 °F    
Average Humidity 66    
Maximum Humidity 94    
Minimum Humidity 32    
Precipitation  
Precipitation 0.00 in 0.04 in - ()
Sea Level Pressure  
Sea Level Pressure 30.09 in    
Wind  
Wind Speed 5 mph ()    
Max Wind Speed 9 mph    
Max Gust Speed -    
Visibility 9.6 miles    
Events      
Averages and records for this station are not official NWS values.
T = Trace of Precipitation, MM = Missing Value Source: Averaged Metar Reports

Daily Weather History Graph

Daily Weather History Graph

Search for Another Location

Airport or City:

Trip Planner

Search our weather history database for the weather conditions in past years. The results will help you decide how hot, cold, wet, or windy it might be!

Date:

Astronomy

Aug. 30, 2013 Rise Set
Actual Time 5:57 AM CEST 7:22 PM CEST
Civil Twilight 5:26 AM CEST 7:53 PM CEST
Nautical Twilight 4:48 AM CEST 8:30 PM CEST
Astronomical Twilight 4:07 AM CEST 9:11 PM CEST
Moon 12:10 AM CEST (8/30) 3:34 PM CEST (8/30)
Length of Visible Light 14h 27m
Length of Day
13h 24m
Waning Crescent, 31% of the Moon is Illuminated
Aug 30
Waning Crescent
Sep 5
New
Sep 12
First Quarter
Sep 19
Full
Sep 27
Last Quarter

Hourly Weather History & Observations

Time (CEST) Temp. Dew Point Humidity Pressure Visibility Wind Dir Wind Speed Gust Speed Precip Events Conditions
12:45 AM 60.8 °F 59.0 °F 94% 30.09 in - West 3.5 mph - N/A   Clear
1:45 AM 59.0 °F 57.2 °F 94% 30.09 in - NNW 3.5 mph - N/A   Clear
2:00 AM 59 °F 57 °F 90% 30.09 in 12 mi NNW 4.5 mph - -   Partly Cloudy
2:45 AM 59.0 °F 57.2 °F 94% 30.09 in - North 4.6 mph - N/A   Clear
3:45 AM 59.0 °F 57.2 °F 94% 30.09 in - NNW 3.5 mph - N/A   Clear
4:45 AM 57.2 °F 55.4 °F 94% 30.09 in - NW 4.6 mph - N/A   Clear
5:45 AM 57.2 °F 55.4 °F 94% 30.09 in - NW 4.6 mph - N/A   Clear
6:15 AM 59.0 °F 55.4 °F 88% 30.09 in - NNW 4.6 mph - N/A   Clear
6:45 AM 59.0 °F 57.2 °F 94% 30.09 in - NW 3.5 mph - N/A   Clear
7:15 AM 59.0 °F 57.2 °F 94% 30.09 in - NW 2.3 mph - N/A   Clear
7:45 AM 59.0 °F 57.2 °F 94% 30.09 in - North 4.6 mph - N/A   Clear
8:00 AM 60 °F 57 °F 87% 30.10 in 9 mi North 4.5 mph - -   Partly Cloudy
8:15 AM 60.8 °F 57.2 °F 88% 30.09 in - North 6.9 mph - N/A   Clear
8:45 AM 62.6 °F 57.2 °F 82% 30.12 in - North 6.9 mph - N/A   Clear
9:15 AM 66.2 °F 57.2 °F 73% 30.12 in - NE 5.8 mph - N/A   Clear
9:45 AM 68.0 °F 53.6 °F 60% 30.12 in - NNE 8.1 mph - N/A   Clear
10:15 AM 69.8 °F 53.6 °F 56% 30.12 in - NE 6.9 mph - N/A   Clear
10:45 AM 69.8 °F 51.8 °F 53% 30.12 in 6.2 mi NE 9.2 mph - N/A   Partly Cloudy
11:15 AM 73.4 °F 53.6 °F 50% 30.12 in 6.2 mi North 8.1 mph - N/A   Partly Cloudy
11:45 AM 73.4 °F 51.8 °F 47% 30.09 in 6.2 mi North 6.9 mph - N/A   Partly Cloudy
12:15 PM 75.2 °F 50.0 °F 41% 30.09 in 6.2 mi NNE 6.9 mph - N/A   Partly Cloudy
12:45 PM 75.2 °F 51.8 °F 44% 30.09 in 6.2 mi North 8.1 mph - N/A   Partly Cloudy
1:15 PM 75.2 °F 51.8 °F 44% 30.09 in - NNW 9.2 mph - N/A   Clear
1:45 PM 75.2 °F 50.0 °F 41% 30.09 in - NNE 8.1 mph - N/A   Clear
2:00 PM 75 °F 51 °F 32% 30.10 in 19 mi NNE 8.9 mph - -   Partly Cloudy
2:15 PM 75.2 °F 50.0 °F 41% 30.09 in - NNE 8.1 mph - N/A   Clear
2:45 PM 77.0 °F 48.2 °F 36% 30.09 in - North 8.1 mph - N/A   Clear
3:15 PM 77.0 °F 50.0 °F 39% 30.09 in - North 6.9 mph - N/A   Clear
3:45 PM 77.0 °F 48.2 °F 36% 30.09 in - NNW 5.8 mph - N/A   Clear
4:15 PM 77.0 °F 48.2 °F 36% 30.09 in - North 8.1 mph - N/A   Clear
4:45 PM 75.2 °F 48.2 °F 38% 30.06 in - North 6.9 mph - N/A   Clear
5:15 PM 77.0 °F 48.2 °F 36% 30.06 in 6.2 mi North 4.6 mph - N/A   Partly Cloudy
5:45 PM 75.2 °F 48.2 °F 38% 30.06 in - NNW 6.9 mph - N/A   Clear
6:15 PM 71.6 °F 50.0 °F 46% 30.06 in - NW 6.9 mph - N/A   Clear
6:45 PM 71.6 °F 51.8 °F 50% 30.06 in - NW 5.8 mph - N/A   Clear
7:15 PM 68.0 °F 51.8 °F 56% 30.06 in - NW 4.6 mph - N/A   Clear
7:45 PM 64.4 °F 53.6 °F 68% 30.09 in - NW 4.6 mph - N/A   Clear
8:00 PM 65 °F 53 °F 56% 30.08 in 19 mi NW 4.5 mph - -   Partly Cloudy
8:15 PM 60.8 °F 55.4 °F 82% 30.09 in - NNW 2.3 mph - N/A   Clear
8:45 PM 59.0 °F 55.4 °F 88% 30.09 in - NNW 1.2 mph - N/A   Clear
9:15 PM 57.2 °F 53.6 °F 88% 30.09 in - NNW 1.2 mph - N/A   Clear
9:45 PM 59.0 °F 53.6 °F 82% 30.09 in - WNW 4.6 mph - N/A   Clear
10:45 PM 57.2 °F 53.6 °F 88% 30.09 in - WNW 3.5 mph - N/A   Clear
11:45 PM 55.4 °F 51.8 °F 88% 30.09 in - WNW 2.3 mph - N/A   Clear